| time (UTC) | temp F | wind direction | speed MPH | gust MPH | rain 1hr in | rain 24hr in | rain mn in | humidity % | barometer mb |
| 20260831041014 | 63 | 352 | 1.0 | 2.0 | 0.00 | 0.00 | 0.00 | 63 | 1017.8 |
| 20260831040516 | 63 | 342 | 1.0 | 2.0 | 0.00 | 0.00 | 0.00 | 62 | 1017.8 |
| 20260831040042 | 63 | 5 | 1.0 | 2.0 | 0.00 | 0.00 | 0.00 | 62 | 1017.8 |
| 20260831035514 | 63 | 5 | 0.0 | 2.0 | 0.00 | 0.00 | 0.00 | 62 | 1017.8 |
| 20260831035008 | 63 | 5 | 1.0 | 3.0 | 0.00 | 0.00 | 0.00 | 61 | 1017.8 |
| 20260831034513 | 64 | 350 | 1.0 | 3.0 | 0.00 | 0.00 | 0.00 | 61 | 1017.8 |
| 20260831034008 | 64 | 24 | 0.0 | 3.0 | 0.00 | 0.00 | 0.00 | 60 | 1017.8 |
| 20260831033509 | 64 | 352 | 1.0 | 3.0 | 0.00 | 0.00 | 0.00 | 60 | 1017.8 |
| 20260831033016 | 64 | 23 | 1.0 | 3.0 | 0.00 | 0.00 | 0.00 | 61 | 1017.8 |
| 20260831032513 | 64 | 333 | 0.0 | 0.0 | 0.00 | 0.00 | 0.00 | 61 | 1017.7 |
| 20260831032012 | 64 | 320 | 0.0 | 2.0 | 0.00 | 0.00 | 0.00 | 60 | 1017.7 |
| 20260831031525 | 64 | 9 | 0.0 | 2.0 | 0.00 | 0.00 | 0.00 | 60 | 1017.8 |
| 20260831031017 | 64 | 9 | 0.0 | 1.0 | 0.00 | 0.00 | 0.00 | 59 | 1017.7 |
| 20260831030516 | 64 | 9 | 0.0 | 2.0 | 0.00 | 0.00 | 0.00 | 59 | 1017.8 |
| 20260831030030 | 65 | 9 | 0.0 | 2.0 | 0.00 | 0.00 | 0.00 | 59 | 1017.7 |
| 20260831025515 | 65 | 352 | 0.0 | 2.0 | 0.00 | 0.00 | 0.00 | 59 | 1017.8 |
| 20260831025015 | 65 | 352 | 0.0 | 2.0 | 0.00 | 0.00 | 0.00 | 59 | 1017.8 |
| 20260831024530 | 65 | 321 | 0.0 | 0.0 | 0.00 | 0.00 | 0.00 | 58 | 1017.8 |
| 20260831024022 | 65 | 336 | 0.0 | 1.0 | 0.00 | 0.00 | 0.00 | 58 | 1017.8 |
| 20260831023508 | 65 | 300 | 0.0 | 1.0 | 0.00 | 0.00 | 0.00 | 58 | 1017.9 |
| 20260831023023 | 65 | 9 | 0.0 | 2.0 | 0.00 | 0.00 | 0.00 | 58 | 1017.9 |
| 20260831022515 | 66 | 9 | 0.0 | 2.0 | 0.00 | 0.00 | 0.00 | 57 | 1017.8 |
| 20260831022011 | 66 | 22 | 0.0 | 2.0 | 0.00 | 0.00 | 0.00 | 56 | 1017.8 |
| 20260831021544 | 66 | 352 | 0.0 | 2.0 | 0.00 | 0.00 | 0.00 | 56 | 1018.0 |
| 20260831021013 | 66 | 301 | 0.0 | 3.0 | 0.00 | 0.00 | 0.00 | 56 | 1018.0 |
| 20260831020513 | 66 | 270 | 1.0 | 3.0 | 0.00 | 0.00 | 0.00 | 55 | 1018.0 |
| 20260831020025 | 67 | 335 | 1.0 | 4.0 | 0.00 | 0.00 | 0.00 | 54 | 1018.0 |
| 20260831015519 | 67 | 5 | 1.0 | 4.0 | 0.00 | 0.00 | 0.00 | 54 | 1018.0 |
| 20260831015017 | 67 | 311 | 2.0 | 5.0 | 0.00 | 0.00 | 0.00 | 53 | 1018.0 |
| 20260831014530 | 67 | 9 | 2.0 | 5.0 | 0.00 | 0.00 | 0.00 | 53 | 1018.1 |
| 20260831014016 | 67 | 5 | 1.0 | 3.0 | 0.00 | 0.00 | 0.00 | 51 | 1018.1 |
| 20260831013516 | 67 | 344 | 1.0 | 3.0 | 0.00 | 0.00 | 0.00 | 51 | 1018.2 |
| 20260831013030 | 68 | 319 | 1.0 | 3.0 | 0.00 | 0.00 | 0.00 | 51 | 1018.2 |
| 20260831012518 | 68 | 279 | 0.0 | 3.0 | 0.00 | 0.00 | 0.00 | 53 | 1018.2 |
| 20260831012009 | 68 | 281 | 1.0 | 3.0 | 0.00 | 0.00 | 0.00 | 52 | 1018.3 |
| 20260831011517 | 68 | 265 | 0.0 | 2.0 | 0.00 | 0.00 | 0.00 | 51 | 1018.3 |
| 20260831011012 | 68 | 259 | 0.0 | 3.0 | 0.00 | 0.00 | 0.00 | 51 | 1018.3 |
| 20260831010512 | 68 | 338 | 1.0 | 3.0 | 0.00 | 0.00 | 0.00 | 51 | 1018.3 |
| 20260831010041 | 68 | 290 | 0.0 | 3.0 | 0.00 | 0.00 | 0.00 | 50 | 1018.4 |
| 20260831005504 | 69 | 275 | 1.0 | 3.0 | 0.00 | 0.00 | 0.00 | 50 | 1018.4 |
| 20260831005004 | 69 | 306 | 1.0 | 4.0 | 0.00 | 0.00 | 0.00 | 51 | 1018.4 |
| 20260831004506 | 68 | 5 | 1.0 | 4.0 | 0.00 | 0.00 | 0.00 | 50 | 1018.4 |
| 20260831004009 | 68 | 268 | 1.0 | 6.0 | 0.00 | 0.00 | 0.00 | 49 | 1018.5 |
| 20260831003504 | 68 | 265 | 3.0 | 6.0 | 0.00 | 0.00 | 0.00 | 49 | 1018.6 |
| 20260831003009 | 69 | 310 | 2.0 | 6.0 | 0.00 | 0.00 | 0.00 | 49 | 1018.6 |
| 20260831002507 | 68 | 302 | 2.0 | 8.0 | 0.00 | 0.00 | 0.00 | 48 | 1018.6 |
| 20260831002012 | 69 | 247 | 3.0 | 8.0 | 0.00 | 0.00 | 0.00 | 49 | 1018.6 |
| 20260831001529 | 68 | 336 | 1.0 | 8.0 | 0.00 | 0.00 | 0.00 | 51 | 1018.6 |
| 20260831001009 | 68 | 317 | 2.0 | 8.0 | 0.00 | 0.00 | 0.00 | 51 | 1018.7 |
| 20260831000511 | 68 | 343 | 2.0 | 8.0 | 0.00 | 0.00 | 0.00 | 51 | 1018.7 |
| 20260831000021 | 68 | 321 | 2.0 | 8.0 | 0.00 | 0.00 | 0.00 | 51 | 1018.8 |
| 20260830235512 | 69 | 312 | 4.0 | 8.0 | 0.00 | 0.00 | 0.00 | 49 | 1018.8 |
| 20260830235003 | 69 | 292 | 2.0 | 7.0 | 0.00 | 0.00 | 0.00 | 48 | 1018.9 |
| 20260830234504 | 70 | 306 | 1.0 | 8.0 | 0.00 | 0.00 | 0.00 | 48 | 1018.9 |
| 20260830234007 | 70 | 286 | 2.0 | 8.0 | 0.00 | 0.00 | 0.00 | 48 | 1019.1 |
| 20260830233505 | 70 | 176 | 2.0 | 4.0 | 0.00 | 0.00 | 0.00 | 46 | 1019.1 |
| 20260830233007 | 70 | 328 | 0.0 | 4.0 | 0.00 | 0.00 | 0.00 | 47 | 1019.1 |
| 20260830232505 | 69 | 292 | 1.0 | 6.0 | 0.00 | 0.00 | 0.00 | 50 | 1019.1 |
| 20260830232009 | 69 | 290 | 3.0 | 6.0 | 0.00 | 0.00 | 0.00 | 49 | 1019.1 |
| 20260830231526 | 69 | 331 | 3.0 | 6.0 | 0.00 | 0.00 | 0.00 | 51 | 1019.2 |
| 20260830231008 | 69 | 290 | 2.0 | 6.0 | 0.00 | 0.00 | 0.00 | 51 | 1019.2 |
| 20260830230512 | 69 | 250 | 2.0 | 6.0 | 0.00 | 0.00 | 0.00 | 51 | 1019.2 |
| 20260830230018 | 70 | 184 | 1.0 | 7.0 | 0.00 | 0.00 | 0.00 | 53 | 1019.1 |
| 20260830225511 | 68 | 127 | 1.0 | 7.0 | 0.00 | 0.00 | 0.00 | 53 | 1019.2 |
| 20260830225013 | 68 | 294 | 2.0 | 6.0 | 0.00 | 0.00 | 0.00 | 53 | 1019.2 |
| 20260830224524 | 69 | 273 | 2.0 | 6.0 | 0.00 | 0.00 | 0.00 | 54 | 1019.3 |
| 20260830224012 | 68 | 286 | 1.0 | 6.0 | 0.00 | 0.00 | 0.00 | 55 | 1019.3 |
| 20260830223504 | 69 | 289 | 3.0 | 6.0 | 0.00 | 0.00 | 0.00 | 54 | 1019.4 |
| 20260830223012 | 70 | 284 | 2.0 | 6.0 | 0.00 | 0.00 | 0.00 | 53 | 1019.5 |
| 20260830222504 | 68 | 302 | 2.0 | 6.0 | 0.00 | 0.00 | 0.00 | 53 | 1019.5 |
| 20260830222008 | 69 | 176 | 1.0 | 4.0 | 0.00 | 0.00 | 0.00 | 55 | 1019.6 |
| 20260830221512 | 69 | 281 | 3.0 | 6.0 | 0.00 | 0.00 | 0.00 | 52 | 1019.7 |
| 20260830221010 | 69 | 208 | 2.0 | 7.0 | 0.00 | 0.00 | 0.00 | 54 | 1019.6 |
| 20260830220508 | 69 | 242 | 1.0 | 7.0 | 0.00 | 0.00 | 0.00 | 55 | 1019.6 |
| 20260830220022 | 69 | 182 | 3.0 | 7.0 | 0.00 | 0.00 | 0.00 | 53 | 1019.6 |
| 20260830215510 | 68 | 215 | 2.0 | 7.0 | 0.00 | 0.00 | 0.00 | 55 | 1019.6 |
| 20260830215013 | 69 | 134 | 3.0 | 7.0 | 0.00 | 0.00 | 0.00 | 53 | 1019.6 |
| 20260830214528 | 68 | 158 | 4.0 | 7.0 | 0.00 | 0.00 | 0.00 | 54 | 1019.6 |
| 20260830214012 | 69 | 311 | 1.0 | 6.0 | 0.00 | 0.00 | 0.00 | 53 | 1019.8 |
| 20260830213517 | 68 | 213 | 2.0 | 8.0 | 0.00 | 0.00 | 0.00 | 56 | 1019.8 |
| 20260830213028 | 67 | 151 | 3.0 | 8.0 | 0.00 | 0.00 | 0.00 | 56 | 1019.9 |
| 20260830212516 | 67 | 92 | 3.0 | 6.0 | 0.00 | 0.00 | 0.00 | 55 | 1019.9 |
| 20260830212004 | 67 | 205 | 2.0 | 6.0 | 0.00 | 0.00 | 0.00 | 57 | 1020.0 |
| 20260830211517 | 67 | 126 | 2.0 | 6.0 | 0.00 | 0.00 | 0.00 | 57 | 1020.0 |
| 20260830211008 | 68 | 184 | 2.0 | 5.0 | 0.00 | 0.00 | 0.00 | 56 | 1020.1 |
| 20260830210508 | 69 | 193 | 1.0 | 7.0 | 0.00 | 0.00 | 0.00 | 57 | 1020.1 |
| 20260830210014 | 67 | 140 | 3.0 | 7.0 | 0.00 | 0.00 | 0.00 | 60 | 1020.1 |
| 20260830205513 | 67 | 59 | 1.0 | 7.0 | 0.00 | 0.00 | 0.00 | 60 | 1020.2 |
| 20260830205008 | 66 | 155 | 3.0 | 8.0 | 0.00 | 0.00 | 0.00 | 60 | 1020.2 |
| 20260830204519 | 67 | 207 | 2.0 | 8.0 | 0.00 | 0.00 | 0.00 | 61 | 1020.2 |
| 20260830204012 | 68 | 134 | 2.0 | 5.0 | 0.00 | 0.00 | 0.00 | 60 | 1020.3 |
| 20260830203512 | 69 | 258 | 0.0 | 4.0 | 0.00 | 0.00 | 0.00 | 58 | 1020.3 |
| 20260830203024 | 67 | 198 | 2.0 | 6.0 | 0.00 | 0.00 | 0.00 | 62 | 1020.3 |
| 20260830202517 | 65 | 132 | 3.0 | 6.0 | 0.00 | 0.00 | 0.00 | 62 | 1020.3 |
| 20260830202016 | 66 | 204 | 3.0 | 6.0 | 0.00 | 0.00 | 0.00 | 61 | 1020.4 |
| 20260830201529 | 65 | 308 | 2.0 | 6.0 | 0.00 | 0.00 | 0.00 | 63 | 1020.5 |
| 20260830201018 | 66 | 159 | 1.0 | 5.0 | 0.00 | 0.00 | 0.00 | 64 | 1020.5 |
| 20260830200507 | 66 | 184 | 2.0 | 5.0 | 0.00 | 0.00 | 0.00 | 63 | 1020.5 |
| 20260830200010 | 65 | 213 | 1.0 | 7.0 | 0.00 | 0.00 | 0.00 | 65 | 1020.4 |
| 20260830195508 | 64 | 141 | 4.0 | 8.0 | 0.00 | 0.00 | 0.00 | 65 | 1020.5 |
| 20260830195012 | 65 | 205 | 4.0 | 8.0 | 0.00 | 0.00 | 0.00 | 63 | 1020.6 |
| 20260830194518 | 66 | 263 | 1.0 | 5.0 | 0.00 | 0.00 | 0.00 | 64 | 1020.6 |
| 20260830194011 | 65 | 147 | 3.0 | 5.0 | 0.00 | 0.00 | 0.00 | 64 | 1020.6 |
| 20260830193513 | 66 | 167 | 2.0 | 6.0 | 0.00 | 0.00 | 0.00 | 63 | 1020.7 |
| 20260830193024 | 65 | 254 | 3.0 | 6.0 | 0.00 | 0.00 | 0.00 | 65 | 1020.7 |
| 20260830192512 | 67 | 201 | 1.0 | 4.0 | 0.00 | 0.00 | 0.00 | 63 | 1020.7 |
| 20260830192016 | 66 | 261 | 1.0 | 4.0 | 0.00 | 0.00 | 0.00 | 62 | 1020.7 |
| 20260830191526 | 66 | 303 | 1.0 | 4.0 | 0.00 | 0.00 | 0.00 | 64 | 1020.7 |
| 20260830191018 | 67 | 215 | 1.0 | 4.0 | 0.00 | 0.00 | 0.00 | 62 | 1020.7 |
| 20260830190516 | 65 | 300 | 2.0 | 4.0 | 0.00 | 0.00 | 0.00 | 65 | 1020.7 |
| 20260830190033 | 65 | 215 | 0.0 | 6.0 | 0.00 | 0.00 | 0.00 | 65 | 1020.8 |
| 20260830185507 | 64 | 161 | 2.0 | 6.0 | 0.00 | 0.00 | 0.00 | 66 | 1020.8 |
| 20260830185008 | 64 | 240 | 2.0 | 4.0 | 0.00 | 0.00 | 0.00 | 66 | 1020.8 |
| 20260830184517 | 65 | 188 | 1.0 | 4.0 | 0.00 | 0.00 | 0.00 | 65 | 1020.9 |
| 20260830184009 | 64 | 235 | 1.0 | 7.0 | 0.00 | 0.00 | 0.00 | 67 | 1020.8 |
| 20260830183512 | 63 | 192 | 3.0 | 8.0 | 0.00 | 0.00 | 0.00 | 71 | 1020.9 |
| 20260830183020 | 62 | 164 | 5.0 | 8.0 | 0.00 | 0.00 | 0.00 | 67 | 1020.8 |
| 20260830182512 | 64 | 30 | 1.0 | 3.0 | 0.00 | 0.00 | 0.00 | 68 | 1020.8 |
| 20260830182014 | 64 | 200 | 1.0 | 3.0 | 0.00 | 0.00 | 0.00 | 67 | 1020.8 |
| 20260830181536 | 63 | 229 | 1.0 | 4.0 | 0.00 | 0.00 | 0.00 | 68 | 1020.9 |
| 20260830181015 | 64 | 175 | 1.0 | 5.0 | 0.00 | 0.00 | 0.00 | 67 | 1020.9 |
| 20260830180516 | 62 | 181 | 2.0 | 5.0 | 0.00 | 0.00 | 0.00 | 71 | 1020.9 |
| 20260830180049 | 61 | 280 | 2.0 | 5.0 | 0.00 | 0.00 | 0.00 | 71 | 1020.9 |
| 20260830175516 | 62 | 128 | 2.0 | 5.0 | 0.00 | 0.00 | 0.00 | 68 | 1020.9 |
| 20260830175017 | 62 | 148 | 2.0 | 4.0 | 0.00 | 0.00 | 0.00 | 71 | 1020.9 |
| 20260830174536 | 62 | 229 | 1.0 | 4.0 | 0.00 | 0.00 | 0.00 | 70 | 1020.9 |
| 20260830174010 | 61 | 43 | 1.0 | 3.0 | 0.00 | 0.00 | 0.00 | 72 | 1020.9 |
| 20260830173509 | 60 | 140 | 1.0 | 6.0 | 0.00 | 0.00 | 0.00 | 73 | 1021.0 |
| 20260830173025 | 59 | 153 | 3.0 | 6.0 | 0.00 | 0.00 | 0.00 | 74 | 1020.9 |
| 20260830172511 | 60 | 175 | 1.0 | 4.0 | 0.00 | 0.00 | 0.00 | 74 | 1020.9 |
| 20260830172012 | 60 | 140 | 1.0 | 3.0 | 0.00 | 0.00 | 0.00 | 73 | 1020.8 |
| 20260830171529 | 62 | 269 | 1.0 | 3.0 | 0.00 | 0.00 | 0.00 | 71 | 1020.8 |
| 20260830171018 | 61 | 130 | 1.0 | 3.0 | 0.00 | 0.00 | 0.00 | 72 | 1020.8 |
| 20260830170514 | 61 | 205 | 1.0 | 4.0 | 0.00 | 0.00 | 0.00 | 72 | 1020.8 |
| 20260830170028 | 61 | 209 | 1.0 | 4.0 | 0.00 | 0.00 | 0.00 | 72 | 1020.7 |
| 20260830165514 | 60 | 272 | 2.0 | 3.0 | 0.00 | 0.00 | 0.00 | 74 | 1020.7 |
| 20260830165015 | 60 | 117 | 1.0 | 3.0 | 0.00 | 0.00 | 0.00 | 75 | 1020.7 |
| 20260830164533 | 58 | 211 | 0.0 | 5.0 | 0.00 | 0.00 | 0.00 | 77 | 1020.8 |
| 20260830164014 | 58 | 173 | 1.0 | 5.0 | 0.00 | 0.00 | 0.00 | 78 | 1020.7 |
| 20260830163524 | 58 | 185 | 3.0 | 4.0 | 0.00 | 0.00 | 0.00 | 76 | 1020.7 |
| 20260830163030 | 58 | 238 | 1.0 | 3.0 | 0.00 | 0.00 | 0.00 | 77 | 1020.8 |
| 20260830162516 | 58 | 207 | 1.0 | 3.0 | 0.00 | 0.00 | 0.00 | 77 | 1020.8 |
| 20260830162012 | 58 | 329 | 0.0 | 5.0 | 0.00 | 0.00 | 0.00 | 77 | 1020.8 |
| 20260830161523 | 58 | 188 | 0.0 | 5.0 | 0.00 | 0.00 | 0.00 | 78 | 1020.8 |
| 20260830161014 | 58 | 197 | 2.0 | 4.0 | 0.00 | 0.00 | 0.00 | 78 | 1020.9 |
| 20260830160515 | 58 | 209 | 0.0 | 3.0 | 0.00 | 0.00 | 0.00 | 78 | 1021.0 |
| 20260830160032 | 57 | 196 | 1.0 | 3.0 | 0.00 | 0.00 | 0.00 | 79 | 1020.9 |
| 20260830155507 | 57 | 208 | 1.0 | 3.0 | 0.00 | 0.00 | 0.00 | 79 | 1020.8 |
| 20260830155003 | 57 | 196 | 0.0 | 3.0 | 0.00 | 0.00 | 0.00 | 78 | 1020.8 |
| 20260830154511 | 57 | 211 | 1.0 | 5.0 | 0.00 | 0.00 | 0.00 | 78 | 1020.8 |
| 20260830154006 | 57 | 181 | 2.0 | 5.0 | 0.00 | 0.00 | 0.00 | 78 | 1020.8 |
| 20260830153509 | 57 | 148 | 2.0 | 5.0 | 0.00 | 0.00 | 0.00 | 78 | 1020.8 |
| 20260830153016 | 57 | 157 | 1.0 | 4.0 | 0.00 | 0.00 | 0.00 | 79 | 1020.7 |
| 20260830152513 | 57 | 169 | 0.0 | 3.0 | 0.00 | 0.00 | 0.00 | 79 | 1020.7 |
| 20260830152011 | 57 | 155 | 1.0 | 3.0 | 0.00 | 0.00 | 0.00 | 79 | 1020.7 |
| 20260830151521 | 56 | 119 | 0.0 | 3.0 | 0.00 | 0.00 | 0.00 | 79 | 1020.6 |
| 20260830151011 | 56 | 144 | 1.0 | 5.0 | 0.00 | 0.00 | 0.00 | 79 | 1020.7 |
| 20260830150513 | 56 | 210 | 2.0 | 5.0 | 0.00 | 0.00 | 0.00 | 79 | 1020.7 |
| 20260830150025 | 56 | 113 | 0.0 | 4.0 | 0.00 | 0.00 | 0.00 | 80 | 1020.7 |
| 20260830145516 | 56 | 113 | 1.0 | 4.0 | 0.00 | 0.00 | 0.00 | 80 | 1020.7 |
| 20260830145004 | 56 | 148 | 1.0 | 4.0 | 0.00 | 0.00 | 0.00 | 80 | 1020.7 |
| 20260830144510 | 56 | 181 | 0.0 | 5.0 | 0.00 | 0.00 | 0.00 | 80 | 1020.7 |
| 20260830144004 | 56 | 154 | 1.0 | 5.0 | 0.00 | 0.00 | 0.00 | 80 | 1020.7 |
| 20260830143508 | 55 | 171 | 0.0 | 0.0 | 0.00 | 0.00 | 0.00 | 81 | 1020.7 |
| 20260830143012 | 55 | 160 | 0.0 | 0.0 | 0.00 | 0.00 | 0.00 | 82 | 1020.6 |
| 20260830142507 | 55 | 180 | 0.0 | 2.0 | 0.00 | 0.00 | 0.00 | 81 | 1020.6 |
| 20260830142010 | 55 | 161 | 0.0 | 2.0 | 0.00 | 0.03 | 0.00 | 81 | 1020.5 |
| 20260830141518 | 55 | 146 | 0.0 | 2.0 | 0.00 | 0.07 | 0.00 | 82 | 1020.4 |
| 20260830141012 | 54 | 146 | 0.0 | 2.0 | 0.00 | 0.14 | 0.00 | 83 | 1020.4 |
| 20260830140512 | 54 | 187 | 0.0 | 0.0 | 0.00 | 0.21 | 0.00 | 83 | 1020.4 |
| 20260830140026 | 54 | 217 | 0.0 | 0.0 | 0.00 | 0.30 | 0.00 | 83 | 1020.3 |
| 20260830135512 | 54 | 210 | 0.0 | 0.0 | 0.00 | 0.31 | 0.00 | 84 | 1020.3 |
| 20260830135014 | 54 | 210 | 0.0 | 0.0 | 0.00 | 0.32 | 0.00 | 84 | 1020.3 |
| 20260830134539 | 54 | 210 | 0.0 | 0.0 | 0.00 | 0.34 | 0.00 | 84 | 1020.3 |
| 20260830134014 | 54 | 210 | 0.0 | 0.0 | 0.00 | 0.38 | 0.00 | 84 | 1020.3 |
| 20260830133504 | 54 | 216 | 0.0 | 0.0 | 0.00 | 0.45 | 0.00 | 84 | 1020.3 |
| 20260830133010 | 54 | 165 | 0.0 | 0.0 | 0.00 | 0.54 | 0.00 | 84 | 1020.3 |
| 20260830132507 | 54 | 165 | 0.0 | 0.0 | 0.00 | 0.55 | 0.00 | 83 | 1020.3 |
| 20260830132013 | 54 | 150 | 0.0 | 0.0 | 0.00 | 0.56 | 0.00 | 83 | 1020.3 |
| 20260830131518 | 54 | 150 | 0.0 | 0.0 | 0.00 | 0.61 | 0.00 | 83 | 1020.3 |
| 20260830131011 | 54 | 150 | 0.0 | 0.0 | 0.00 | 0.62 | 0.00 | 83 | 1020.3 |
| 20260830130514 | 54 | 145 | 0.0 | 0.0 | 0.00 | 0.62 | 0.00 | 83 | 1020.3 |
| 20260830130021 | 54 | 136 | 0.0 | 0.0 | 0.00 | 0.63 | 0.00 | 83 | 1020.3 |
| 20260830125512 | 55 | 109 | 0.0 | 0.0 | 0.00 | 0.63 | 0.00 | 83 | 1020.2 |
| 20260830125013 | 55 | 117 | 0.0 | 0.0 | 0.00 | 0.63 | 0.00 | 84 | 1020.2 |
| 20260830124527 | 55 | 117 | 0.0 | 0.0 | 0.00 | 0.63 | 0.00 | 84 | 1020.2 |
| 20260830124015 | 55 | 117 | 0.0 | 0.0 | 0.00 | 0.63 | 0.00 | 83 | 1020.3 |
| 20260830123515 | 55 | 105 | 0.0 | 0.0 | 0.00 | 0.63 | 0.00 | 83 | 1020.2 |
| 20260830123031 | 55 | 105 | 0.0 | 0.0 | 0.00 | 0.63 | 0.00 | 83 | 1020.3 |
| 20260830122515 | 55 | 118 | 0.0 | 0.0 | 0.00 | 0.63 | 0.00 | 83 | 1020.3 |
| 20260830122009 | 55 | 156 | 0.0 | 0.0 | 0.00 | 0.63 | 0.00 | 83 | 1020.2 |
| 20260830121511 | 55 | 174 | 0.0 | 0.0 | 0.00 | 0.63 | 0.00 | 83 | 1020.3 |
| 20260830121008 | 55 | 174 | 0.0 | 0.0 | 0.00 | 0.63 | 0.00 | 83 | 1020.4 |
| 20260830120510 | 55 | 174 | 0.0 | 0.0 | 0.00 | 0.63 | 0.00 | 83 | 1020.4 |
| 20260830120017 | 55 | 174 | 0.0 | 0.0 | 0.00 | 0.63 | 0.00 | 83 | 1020.4 |
| 20260830115512 | 55 | 126 | 0.0 | 0.0 | 0.00 | 0.63 | 0.00 | 83 | 1020.4 |
| 20260830115014 | 55 | 126 | 0.0 | 0.0 | 0.00 | 0.63 | 0.00 | 83 | 1020.4 |
| 20260830114524 | 55 | 126 | 0.0 | 0.0 | 0.00 | 0.63 | 0.00 | 83 | 1020.4 |
| 20260830114016 | 55 | 126 | 0.0 | 0.0 | 0.00 | 0.63 | 0.00 | 83 | 1020.3 |
| 20260830113515 | 55 | 126 | 0.0 | 0.0 | 0.00 | 0.63 | 0.00 | 83 | 1020.3 |
| 20260830113030 | 55 | 125 | 0.0 | 0.0 | 0.00 | 0.63 | 0.00 | 83 | 1020.2 |
| 20260830112514 | 55 | 125 | 0.0 | 0.0 | 0.00 | 0.63 | 0.00 | 83 | 1020.2 |
| 20260830112016 | 55 | 125 | 0.0 | 0.0 | 0.00 | 0.63 | 0.00 | 83 | 1020.1 |
| 20260830111532 | 55 | 125 | 0.0 | 0.0 | 0.00 | 0.63 | 0.00 | 83 | 1020.1 |
| 20260830111016 | 55 | 160 | 0.0 | 0.0 | 0.00 | 0.63 | 0.00 | 83 | 1020.0 |
| 20260830110508 | 55 | 194 | 0.0 | 0.0 | 0.00 | 0.63 | 0.00 | 83 | 1020.1 |
| 20260830110017 | 55 | 216 | 0.0 | 0.0 | 0.00 | 0.63 | 0.00 | 83 | 1020.1 |
| 20260830105511 | 55 | 138 | 0.0 | 0.0 | 0.00 | 0.63 | 0.00 | 83 | 1020.1 |
| 20260830105012 | 55 | 138 | 0.0 | 2.0 | 0.00 | 0.63 | 0.00 | 83 | 1020.0 |
| 20260830104522 | 55 | 138 | 0.0 | 2.0 | 0.00 | 0.63 | 0.00 | 83 | 1020.1 |
| 20260830104012 | 55 | 221 | 0.0 | 4.0 | 0.00 | 0.63 | 0.00 | 83 | 1020.2 |
| 20260830103513 | 55 | 167 | 0.0 | 4.0 | 0.00 | 0.63 | 0.00 | 83 | 1020.2 |
| 20260830103028 | 55 | 146 | 0.0 | 2.0 | 0.00 | 0.63 | 0.00 | 83 | 1020.2 |
| 20260830102516 | 55 | 163 | 0.0 | 2.0 | 0.00 | 0.63 | 0.00 | 83 | 1020.2 |
| 20260830102015 | 55 | 165 | 0.0 | 0.0 | 0.00 | 0.63 | 0.00 | 83 | 1020.2 |
| 20260830101532 | 55 | 142 | 0.0 | 0.0 | 0.00 | 0.63 | 0.00 | 83 | 1020.2 |
| 20260830101014 | 55 | 177 | 0.0 | 1.0 | 0.00 | 0.63 | 0.00 | 83 | 1020.1 |
| 20260830100518 | 55 | 182 | 0.0 | 3.0 | 0.00 | 0.63 | 0.00 | 82 | 1020.1 |
| 20260830100031 | 55 | 167 | 0.0 | 3.0 | 0.00 | 0.63 | 0.00 | 82 | 1020.0 |
| 20260830095518 | 55 | 167 | 0.0 | 4.0 | 0.00 | 0.63 | 0.00 | 82 | 1020.0 |
| 20260830095011 | 56 | 193 | 0.0 | 4.0 | 0.00 | 0.63 | 0.00 | 82 | 1019.9 |
| 20260830094519 | 56 | 169 | 1.0 | 2.0 | 0.00 | 0.63 | 0.00 | 82 | 1020.0 |
| 20260830094012 | 56 | 176 | 0.0 | 2.0 | 0.00 | 0.63 | 0.00 | 82 | 1019.9 |
| 20260830093512 | 56 | 192 | 0.0 | 2.0 | 0.00 | 0.63 | 0.00 | 82 | 1020.0 |
| 20260830093023 | 56 | 192 | 1.0 | 2.0 | 0.00 | 0.63 | 0.00 | 81 | 1020.0 |
| 20260830092514 | 56 | 180 | 0.0 | 2.0 | 0.00 | 0.63 | 0.00 | 81 | 1019.9 |
| 20260830092014 | 56 | 180 | 0.0 | 3.0 | 0.00 | 0.63 | 0.00 | 81 | 1019.9 |
| 20260830091530 | 56 | 180 | 1.0 | 3.0 | 0.00 | 0.63 | 0.00 | 81 | 1019.9 |
| 20260830091016 | 56 | 177 | 0.0 | 4.0 | 0.00 | 0.63 | 0.00 | 81 | 1020.0 |
| 20260830090517 | 56 | 192 | 0.0 | 4.0 | 0.00 | 0.63 | 0.00 | 81 | 1020.0 |
| 20260830090031 | 56 | 148 | 0.0 | 3.0 | 0.00 | 0.63 | 0.00 | 81 | 1020.0 |
| 20260830085508 | 56 | 158 | 0.0 | 2.0 | 0.00 | 0.63 | 0.00 | 81 | 1020.2 |
| 20260830085006 | 56 | 177 | 0.0 | 3.0 | 0.00 | 0.63 | 0.00 | 81 | 1020.1 |
| 20260830084516 | 56 | 177 | 0.0 | 3.0 | 0.00 | 0.63 | 0.00 | 81 | 1020.0 |
| 20260830084013 | 56 | 186 | 0.0 | 3.0 | 0.00 | 0.63 | 0.00 | 81 | 1020.0 |
| 20260830083513 | 56 | 184 | 0.0 | 4.0 | 0.00 | 0.63 | 0.00 | 80 | 1020.0 |
| 20260830083019 | 56 | 205 | 0.0 | 4.0 | 0.00 | 0.63 | 0.00 | 80 | 1020.0 |
| 20260830082514 | 56 | 161 | 0.0 | 2.0 | 0.00 | 0.63 | 0.00 | 80 | 1020.0 |
| 20260830082017 | 56 | 200 | 0.0 | 1.0 | 0.00 | 0.63 | 0.00 | 80 | 1020.0 |
| 20260830081510 | 56 | 103 | 0.0 | 2.0 | 0.00 | 0.63 | 0.00 | 80 | 1019.9 |
| 20260830081004 | 56 | 140 | 1.0 | 3.0 | 0.00 | 0.63 | 0.00 | 80 | 1019.9 |
| 20260830080503 | 56 | 152 | 1.0 | 3.0 | 0.00 | 0.63 | 0.00 | 80 | 1019.8 |
| 20260830080006 | 56 | 250 | 0.0 | 2.0 | 0.00 | 0.63 | 0.00 | 80 | 1019.8 |
| 20260830075506 | 56 | 128 | 0.0 | 2.0 | 0.00 | 0.63 | 0.00 | 81 | 1019.9 |
| 20260830075009 | 56 | 180 | 0.0 | 0.0 | 0.00 | 0.63 | 0.00 | 81 | 1019.8 |
| 20260830074526 | 56 | 178 | 0.0 | 0.0 | 0.00 | 0.63 | 0.00 | 82 | 1019.8 |
| 20260830074020 | 56 | 184 | 0.0 | 0.0 | 0.00 | 0.63 | 0.00 | 82 | 1019.8 |
| 20260830073510 | 56 | 184 | 0.0 | 0.0 | 0.00 | 0.63 | 0.00 | 83 | 1019.8 |
| 20260830073019 | 56 | 184 | 0.0 | 0.0 | 0.00 | 0.63 | 0.00 | 83 | 1019.8 |
| 20260830072515 | 56 | 184 | 0.0 | 0.0 | 0.00 | 0.63 | 0.00 | 82 | 1019.7 |
| 20260830072016 | 56 | 184 | 0.0 | 2.0 | 0.00 | 0.63 | 0.00 | 82 | 1019.7 |
| 20260830071528 | 56 | 184 | 0.0 | 4.0 | 0.00 | 0.63 | 0.00 | 82 | 1019.7 |
| 20260830071015 | 56 | 230 | 0.0 | 4.0 | 0.00 | 0.63 | 0.00 | 83 | 1019.6 |
| 20260830070515 | 56 | 338 | 0.0 | 2.0 | 0.00 | 0.63 | 0.00 | 82 | 1019.6 |
| 20260830070004 | 56 | 186 | 0.0 | 2.0 | 0.00 | 0.63 | 0.00 | 82 | 1019.6 |
| 20260830065506 | 56 | 187 | 0.0 | 2.0 | 0.00 | 0.63 | 0.63 | 82 | 1019.7 |
| 20260830065006 | 56 | 244 | 0.0 | 2.0 | 0.00 | 0.63 | 0.63 | 82 | 1019.6 |
| 20260830064511 | 56 | 250 | 0.0 | 2.0 | 0.00 | 0.63 | 0.63 | 81 | 1019.6 |
| 20260830064006 | 57 | 252 | 0.0 | 2.0 | 0.00 | 0.63 | 0.63 | 81 | 1019.6 |
| 20260830063508 | 57 | 182 | 0.0 | 4.0 | 0.00 | 0.63 | 0.63 | 81 | 1019.5 |
| 20260830063017 | 57 | 235 | 1.0 | 4.0 | 0.00 | 0.63 | 0.63 | 81 | 1019.5 |
| 20260830062511 | 57 | 232 | 0.0 | 4.0 | 0.00 | 0.63 | 0.63 | 80 | 1019.5 |
| 20260830062011 | 57 | 224 | 2.0 | 4.0 | 0.00 | 0.63 | 0.63 | 80 | 1019.4 |
| 20260830061527 | 57 | 319 | 0.0 | 2.0 | 0.00 | 0.63 | 0.63 | 81 | 1019.4 |
| 20260830061016 | 57 | 199 | 0.0 | 4.0 | 0.00 | 0.63 | 0.63 | 81 | 1019.5 |
| 20260830060514 | 57 | 232 | 0.0 | 4.0 | 0.00 | 0.63 | 0.63 | 80 | 1019.4 |
| 20260830060028 | 57 | 219 | 0.0 | 2.0 | 0.00 | 0.63 | 0.63 | 80 | 1019.4 |
| 20260830055516 | 57 | 196 | 1.0 | 2.0 | 0.00 | 0.63 | 0.63 | 80 | 1019.5 |
| 20260830055015 | 57 | 217 | 0.0 | 3.0 | 0.00 | 0.63 | 0.63 | 79 | 1019.5 |
| 20260830054518 | 58 | 259 | 1.0 | 4.0 | 0.00 | 0.63 | 0.63 | 78 | 1019.5 |
| 20260830054011 | 58 | 228 | 0.0 | 4.0 | 0.00 | 0.63 | 0.63 | 78 | 1019.5 |
| 20260830053508 | 58 | 188 | 0.0 | 3.0 | 0.00 | 0.63 | 0.63 | 78 | 1019.5 |
| 20260830053014 | 58 | 229 | 0.0 | 5.0 | 0.00 | 0.63 | 0.63 | 78 | 1019.5 |
| 20260830052508 | 58 | 198 | 2.0 | 5.0 | 0.00 | 0.63 | 0.63 | 77 | 1019.5 |
| 20260830052012 | 58 | 184 | 0.0 | 2.0 | 0.00 | 0.63 | 0.63 | 76 | 1019.5 |
| 20260830051536 | 58 | 248 | 0.0 | 3.0 | 0.00 | 0.63 | 0.63 | 76 | 1019.4 |
| 20260830051012 | 59 | 227 | 0.0 | 3.0 | 0.00 | 0.63 | 0.63 | 75 | 1019.4 |
| 20260830050511 | 59 | 251 | 0.0 | 8.0 | 0.00 | 0.63 | 0.63 | 75 | 1019.4 |
| 20260830050023 | 59 | 219 | 1.0 | 8.0 | 0.00 | 0.63 | 0.63 | 74 | 1019.4 |
| 20260830045516 | 59 | 228 | 0.0 | 5.0 | 0.00 | 0.63 | 0.63 | 73 | 1019.3 |
| 20260830045016 | 59 | 221 | 0.0 | 5.0 | 0.00 | 0.63 | 0.63 | 73 | 1019.3 |
| 20260830044528 | 59 | 215 | 1.0 | 5.0 | 0.00 | 0.63 | 0.63 | 73 | 1019.2 |
| 20260830044019 | 59 | 161 | 1.0 | 5.0 | 0.00 | 0.63 | 0.63 | 73 | 1019.1 |
| 20260830043519 | 59 | 193 | 1.0 | 4.0 | 0.00 | 0.63 | 0.63 | 74 | 1019.1 |
| 20260830043011 | 59 | 219 | 1.0 | 7.0 | 0.00 | 0.63 | 0.63 | 75 | 1019.1 |
| 20260830042505 | 59 | 219 | 2.0 | 7.0 | 0.00 | 0.63 | 0.63 | 74 | 1019.1 |
| 20260830042010 | 59 | 234 | 1.0 | 7.0 | 0.00 | 0.63 | 0.63 | 73 | 1019.1 |
| 20260830041543 | 60 | 206 | 1.0 | 7.0 | 0.00 | 0.63 | 0.63 | 73 | 1019.1 |